B1012 ZUUU-ZGHA

Flight info

Callsign B1012
Flight time N/A
Altitude 31100
Route UBRAB9W UBRAB B213 KIGUM W240 ENH W139 DYG W194 LLC W138 RUKLI RUK2W
Aircraft C700/M-SBDGHM1RWXY/LB2

Departure

Time 2026-04-27 08:03
Airport Chengdu Shuangliu International Airport (ZUUU)

Arrival

Time N/A
Airport Changsha Huanghua International Airport (ZGHA)
Time Latitude Longitude Altitude Speed Heading
2026-04-27 07:44 30.59353 103.95827 1641 ft 0 kts 111°
2026-04-27 07:52 30.59355 103.95820 1641 ft 2 kts 111°
2026-04-27 07:52 30.59362 103.95799 1641 ft 3 kts 111°
2026-04-27 07:52 30.59369 103.95777 1641 ft 3 kts 111°
2026-04-27 07:52 30.59376 103.95755 1641 ft 2 kts 111°
2026-04-27 07:53 30.59381 103.95735 1641 ft 3 kts 89°
2026-04-27 07:53 30.59375 103.95717 1641 ft 3 kts 30°
2026-04-27 07:53 30.59356 103.95709 1641 ft 3 kts 15°
2026-04-27 07:53 30.59351 103.95707 1641 ft 2 kts 18°
2026-04-27 07:54 30.59347 103.95706 1641 ft 0 kts 21°
2026-04-27 07:55 30.59362 103.95713 1641 ft 11 kts 21°
2026-04-27 07:56 30.59449 103.95751 1641 ft 4 kts 14°
2026-04-27 07:56 30.59479 103.95731 1641 ft 9 kts 310°
2026-04-27 07:56 30.59484 103.95721 1641 ft 0 kts 299°
2026-04-27 07:56 30.59450 103.95657 1641 ft 17 kts 193°
2026-04-27 07:57 30.59334 103.95606 1641 ft 14 kts 203°
2026-04-27 07:57 30.59300 103.95537 1641 ft 11 kts 281°
2026-04-27 07:57 30.59308 103.95509 1641 ft 0 kts 292°
2026-04-27 08:01 30.59325 103.95415 1641 ft 16 kts 250°
2026-04-27 08:01 30.59248 103.95349 1642 ft 0 kts 201°
2026-04-27 08:02 30.59247 103.95348 1642 ft 2 kts 201°
2026-04-27 08:02 30.59088 103.95274 1642 ft 50 kts 202°
2026-04-27 08:02 30.58492 103.95000 1668 ft 136 kts 203°
2026-04-27 08:02 30.57392 103.94482 1832 ft 208 kts 203°
2026-04-27 08:03 30.55777 103.93728 1938 ft 281 kts 204°
2026-04-27 08:03 30.54047 103.92836 3404 ft 260 kts 203°
2026-04-27 08:03 30.52359 103.92020 4311 ft 276 kts 201°
2026-04-27 08:03 30.50485 103.91093 4368 ft 317 kts 202°
2026-04-27 08:04 30.48591 103.89686 5113 ft 313 kts 224°
2026-04-27 08:04 30.47511 103.87650 5742 ft 292 kts 255°
2026-04-27 08:04 30.47408 103.85331 5829 ft 288 kts 284°
2026-04-27 08:04 30.48173 103.83244 5967 ft 279 kts 310°
2026-04-27 08:05 30.49596 103.81783 6082 ft 270 kts 336°
2026-04-27 08:05 30.51351 103.81169 6220 ft 261 kts 359°
2026-04-27 08:05 30.53121 103.81428 6349 ft 255 kts 21°
2026-04-27 08:05 30.54672 103.82395 6469 ft 254 kts 33°
2026-04-27 08:06 30.56172 103.83481 6556 ft 255 kts 32°
2026-04-27 08:06 30.57686 103.84562 6648 ft 256 kts 32°
2026-04-27 08:06 30.59203 103.85646 6742 ft 257 kts 33°
2026-04-27 08:06 30.60725 103.86736 6801 ft 259 kts 32°
2026-04-27 08:07 30.62264 103.87841 6817 ft 261 kts 33°
2026-04-27 08:07 30.63776 103.88921 7182 ft 251 kts 33°
2026-04-27 08:07 30.65250 103.89978 7437 ft 247 kts 33°
2026-04-27 08:07 30.66686 103.91005 7692 ft 245 kts 33°
2026-04-27 08:08 30.68133 103.92042 7961 ft 243 kts 33°
2026-04-27 08:08 30.69567 103.93072 8227 ft 242 kts 33°
2026-04-27 08:08 30.70996 103.94096 8497 ft 241 kts 33°
2026-04-27 08:08 30.72298 103.95293 8761 ft 239 kts 45°
2026-04-27 08:09 30.73338 103.96800 9013 ft 240 kts 56°
2026-04-27 08:09 30.74074 103.98545 9273 ft 241 kts 67°
2026-04-27 08:09 30.74654 104.00374 9543 ft 241 kts 66°
2026-04-27 08:09 30.75256 104.02189 9801 ft 241 kts 66°
2026-04-27 08:10 30.75850 104.04014 10034 ft 242 kts 67°
2026-04-27 08:10 30.76445 104.05842 10262 ft 242 kts 67°
2026-04-27 08:10 30.77036 104.07668 10611 ft 237 kts 67°
2026-04-27 08:10 30.77637 104.09513 11082 ft 264 kts 67°
2026-04-27 08:11 30.78355 104.11704 11598 ft 315 kts 68°
2026-04-27 08:11 30.79162 104.14201 12130 ft 334 kts 68°
2026-04-27 08:11 30.79987 104.16765 12657 ft 344 kts 69°
2026-04-27 08:11 30.80841 104.19404 13201 ft 353 kts 69°
2026-04-27 08:12 30.81719 104.22104 13737 ft 361 kts 69°
2026-04-27 08:12 30.82600 104.24830 14205 ft 367 kts 69°
2026-04-27 08:12 30.83499 104.27624 14815 ft 368 kts 69°
2026-04-27 08:12 30.84410 104.30442 15535 ft 383 kts 69°
2026-04-27 08:13 30.85385 104.33453 16272 ft 411 kts 69°
2026-04-27 08:13 30.86397 104.36608 17024 ft 423 kts 69°
2026-04-27 08:13 30.87418 104.39902 17806 ft 437 kts 72°
2026-04-27 08:13 30.88292 104.43269 18533 ft 432 kts 73°
2026-04-27 08:14 30.89162 104.46682 19216 ft 449 kts 73°
2026-04-27 08:14 30.90099 104.50226 19907 ft 457 kts 73°
2026-04-27 08:14 30.90989 104.53624 20616 ft 427 kts 74°
2026-04-27 08:14 30.91837 104.56974 21338 ft 439 kts 73°
2026-04-27 08:15 30.92765 104.60432 22083 ft 455 kts 73°
2026-04-27 08:15 30.93707 104.64010 22849 ft 469 kts 73°
2026-04-27 08:15 30.94647 104.67704 23609 ft 482 kts 74°
2026-04-27 08:15 30.95622 104.71487 24273 ft 493 kts 73°
2026-04-27 08:16 30.96604 104.75243 24939 ft 488 kts 73°
2026-04-27 08:16 30.97581 104.79012 25635 ft 484 kts 73°
2026-04-27 08:16 30.98329 104.82810 26315 ft 479 kts 85°
2026-04-27 08:16 30.98245 104.85413 26774 ft 475 kts 100°
2026-04-27 08:17 30.97367 104.89088 27493 ft 470 kts 112°
2026-04-27 08:17 30.96081 104.92619 28245 ft 474 kts 116°
2026-04-27 08:17 30.94693 104.96078 29014 ft 480 kts 116°
2026-04-27 08:17 30.93381 104.99650 29819 ft 472 kts 112°
2026-04-27 08:18 30.92383 105.03202 30507 ft 455 kts 108°
2026-04-27 08:18 30.91523 105.06690 31191 ft 442 kts 108°
2026-04-27 08:18 30.90560 105.10068 31891 ft 440 kts 112°
2026-04-27 08:18 30.89471 105.13403 32618 ft 441 kts 112°
2026-04-27 08:19 30.88426 105.16799 33021 ft 453 kts 110°
2026-04-27 08:19 30.87426 105.20339 33017 ft 464 kts 109°
2026-04-27 08:19 30.85290 105.27522 33014 ft 479 kts 111°
2026-04-27 08:20 30.84169 105.31196 33026 ft 496 kts 110°
2026-04-27 08:20 30.83015 105.35112 33032 ft 513 kts 110°
2026-04-27 08:20 30.80657 105.43015 33486 ft 517 kts 111°
2026-04-27 08:21 30.79473 105.46929 33987 ft 521 kts 110°
2026-04-27 08:21 30.78275 105.50933 34451 ft 526 kts 110°
2026-04-27 08:21 30.77066 105.54975 34920 ft 530 kts 111°
2026-04-27 08:21 30.75840 105.59037 35404 ft 534 kts 111°
2026-04-27 08:22 30.74607 105.63117 35892 ft 536 kts 111°
2026-04-27 08:22 30.73372 105.67210 36380 ft 536 kts 111°
2026-04-27 08:22 30.72137 105.71305 36884 ft 536 kts 111°
2026-04-27 08:22 30.70892 105.75411 36946 ft 541 kts 111°
2026-04-27 08:23 30.68423 105.83558 36945 ft 531 kts 111°
2026-04-27 08:23 30.65969 105.91628 36943 ft 527 kts 111°
2026-04-27 08:24 30.63535 105.99614 36940 ft 527 kts 111°
2026-04-27 08:24 30.61088 106.07620 36937 ft 527 kts 111°
2026-04-27 08:25 30.58629 106.15648 36934 ft 528 kts 111°
2026-04-27 08:25 30.56165 106.23669 36939 ft 527 kts 111°
2026-04-27 08:26 30.53702 106.31669 36933 ft 526 kts 111°
2026-04-27 08:26 30.51235 106.39666 36938 ft 525 kts 111°
2026-04-27 08:27 30.48783 106.47584 36937 ft 524 kts 111°
2026-04-27 08:27 30.46313 106.55549 36935 ft 526 kts 111°
2026-04-27 08:28 30.43831 106.63532 36939 ft 526 kts 111°
2026-04-27 08:28 30.41355 106.71482 36939 ft 524 kts 111°
2026-04-27 08:29 30.38877 106.79408 36939 ft 524 kts 111°
2026-04-27 08:29 30.36389 106.87351 36940 ft 525 kts 111°
2026-04-27 08:30 30.33902 106.95273 36945 ft 523 kts 111°
2026-04-27 08:30 30.31413 107.03179 36943 ft 523 kts 111°
2026-04-27 08:31 30.28918 107.11090 36939 ft 523 kts 111°
2026-04-27 08:31 30.26427 107.18962 36940 ft 522 kts 111°
2026-04-27 08:32 30.23923 107.26861 36935 ft 522 kts 111°
2026-04-27 08:32 30.21430 107.34706 36941 ft 522 kts 111°
2026-04-27 08:33 30.18920 107.42586 36945 ft 522 kts 111°
2026-04-27 08:33 30.16418 107.50419 37021 ft 517 kts 111°
2026-04-27 08:34 30.15176 107.54299 37538 ft 515 kts 111°
2026-04-27 08:34 30.13937 107.58178 38067 ft 514 kts 111°
2026-04-27 08:34 30.12699 107.62040 38603 ft 511 kts 111°
2026-04-27 08:34 30.11464 107.65882 39045 ft 509 kts 111°
2026-04-27 08:35 30.10237 107.69700 39502 ft 505 kts 111°
2026-04-27 08:35 30.09019 107.73488 39969 ft 501 kts 111°
2026-04-27 08:35 30.07812 107.77234 40448 ft 497 kts 112°
2026-04-27 08:35 30.06608 107.80965 40858 ft 494 kts 110°
2026-04-27 08:36 30.04178 107.88487 40870 ft 506 kts 112°
2026-04-27 08:36 30.01697 107.96149 40881 ft 517 kts 112°
2026-04-27 08:37 29.99154 108.03988 40901 ft 523 kts 112°
2026-04-27 08:37 29.96599 108.11850 40897 ft 522 kts 112°
2026-04-27 08:38 29.94044 108.19681 40899 ft 522 kts 112°
2026-04-27 08:38 29.91482 108.27523 40902 ft 522 kts 112°
2026-04-27 08:39 29.88914 108.35366 40891 ft 522 kts 112°
2026-04-27 08:39 29.86358 108.43152 40898 ft 522 kts 112°
2026-04-27 08:40 29.83779 108.50985 40899 ft 524 kts 112°
2026-04-27 08:40 29.81195 108.58824 40895 ft 523 kts 112°
2026-04-27 08:41 29.78606 108.66651 40891 ft 522 kts 112°
2026-04-27 08:41 29.76018 108.74465 40891 ft 523 kts 112°
2026-04-27 08:42 29.73423 108.82281 40890 ft 522 kts 112°
2026-04-27 08:42 29.70827 108.90083 40888 ft 522 kts 112°
2026-04-27 08:43 29.68234 108.97849 40891 ft 523 kts 112°
2026-04-27 08:43 29.65627 109.05653 40895 ft 523 kts 112°
2026-04-27 08:44 29.63012 109.13451 40899 ft 523 kts 112°
2026-04-27 08:44 29.60397 109.21239 40902 ft 521 kts 112°
2026-04-27 08:45 29.57779 109.29015 40898 ft 521 kts 112°
2026-04-27 08:45 29.55166 109.36763 40894 ft 520 kts 112°
2026-04-27 08:46 29.52544 109.44512 40892 ft 520 kts 112°
2026-04-27 08:46 29.49930 109.52231 40896 ft 518 kts 112°
2026-04-27 08:47 29.47313 109.59932 40893 ft 517 kts 112°
2026-04-27 08:47 29.44692 109.67634 40894 ft 519 kts 112°
2026-04-27 08:48 29.42078 109.75297 40896 ft 519 kts 112°
2026-04-27 08:48 29.39449 109.82986 40899 ft 517 kts 112°
2026-04-27 08:49 29.36806 109.90698 40899 ft 520 kts 112°
2026-04-27 08:49 29.34160 109.98408 40900 ft 520 kts 112°
2026-04-27 08:50 29.31498 110.06138 40892 ft 521 kts 112°
2026-04-27 08:50 29.28832 110.13866 40901 ft 522 kts 112°
2026-04-27 08:51 29.26163 110.21588 40897 ft 520 kts 112°
2026-04-27 08:51 29.23493 110.29297 40898 ft 521 kts 112°
2026-04-27 08:52 29.20834 110.36957 40898 ft 521 kts 112°
2026-04-27 08:52 29.18153 110.44661 40900 ft 520 kts 112°
2026-04-27 08:53 29.15468 110.52360 40899 ft 521 kts 112°
2026-04-27 08:53 29.12775 110.60073 40898 ft 522 kts 112°
2026-04-27 08:54 29.10070 110.67788 40899 ft 522 kts 113°
2026-04-27 08:54 29.07377 110.75465 40896 ft 523 kts 113°
2026-04-27 08:55 29.04660 110.83188 40898 ft 522 kts 113°
2026-04-27 08:55 29.01945 110.90895 40896 ft 522 kts 113°
2026-04-27 08:56 28.99230 110.98578 40895 ft 521 kts 113°
2026-04-27 08:56 28.96514 111.06252 40897 ft 521 kts 113°
2026-04-27 08:57 28.92452 111.17695 40890 ft 521 kts 113°
2026-04-27 08:58 28.89722 111.25368 40890 ft 522 kts 113°
2026-04-27 08:58 28.88353 111.29208 40587 ft 522 kts 113°
2026-04-27 08:58 28.86992 111.33024 39910 ft 515 kts 113°
2026-04-27 08:58 28.85654 111.36777 39241 ft 505 kts 113°
2026-04-27 08:59 28.84345 111.40436 38589 ft 492 kts 113°
2026-04-27 08:59 28.83063 111.44013 37889 ft 482 kts 113°
2026-04-27 08:59 28.81808 111.47520 37261 ft 475 kts 113°
2026-04-27 08:59 28.80562 111.50992 36641 ft 473 kts 113°
2026-04-27 09:00 28.79305 111.54491 36015 ft 481 kts 113°
2026-04-27 09:00 28.78033 111.58035 35379 ft 485 kts 113°
2026-04-27 09:00 28.76750 111.61605 34739 ft 486 kts 114°
2026-04-27 09:00 28.75462 111.65180 34094 ft 487 kts 114°
2026-04-27 09:01 28.74175 111.68753 33416 ft 487 kts 114°
2026-04-27 09:01 28.72899 111.72289 32777 ft 489 kts 114°
2026-04-27 09:01 28.71582 111.75940 32121 ft 493 kts 114°
2026-04-27 09:01 28.70271 111.79564 31469 ft 497 kts 114°
2026-04-27 09:02 28.68970 111.83162 30818 ft 499 kts 114°
2026-04-27 09:02 28.67644 111.86828 30161 ft 502 kts 114°
2026-04-27 09:02 28.66309 111.90508 29453 ft 502 kts 114°
2026-04-27 09:02 28.64982 111.94167 28791 ft 498 kts 114°
2026-04-27 09:03 28.63665 111.97792 28132 ft 493 kts 114°
2026-04-27 09:03 28.62357 112.01390 27486 ft 488 kts 114°
2026-04-27 09:03 28.61065 112.04944 26844 ft 482 kts 114°
2026-04-27 09:03 28.59786 112.08452 26213 ft 477 kts 114°
2026-04-27 09:04 28.58521 112.11922 25583 ft 473 kts 114°
2026-04-27 09:04 28.57268 112.15354 24962 ft 466 kts 114°
2026-04-27 09:04 28.56033 112.18735 24355 ft 460 kts 114°
2026-04-27 09:04 28.55222 112.20959 23948 ft 456 kts 114°
2026-04-27 09:05 28.54009 112.24275 23340 ft 452 kts 114°
2026-04-27 09:05 28.52806 112.27555 22708 ft 446 kts 114°
2026-04-27 09:05 28.51620 112.30796 22124 ft 442 kts 114°
2026-04-27 09:05 28.50442 112.34006 21543 ft 438 kts 114°
2026-04-27 09:06 28.48897 112.38216 20785 ft 433 kts 114°
2026-04-27 09:06 28.48113 112.40346 20400 ft 431 kts 114°
2026-04-27 09:06 28.46977 112.43440 19836 ft 427 kts 114°
2026-04-27 09:06 28.45835 112.46542 19279 ft 423 kts 114°
2026-04-27 09:07 28.44704 112.49609 18725 ft 419 kts 114°
2026-04-27 09:07 28.43583 112.52655 18173 ft 415 kts 114°